Flag for Germany Weather past 2 weeks in Kaufbeuren, Bavaria, Germany

Now
57 °F

Light rain. Mostly cloudy.


Feels Like: 57 °F
Forecast: 57 / 66 °F
Wind: 2 mph from West

Location: Altenstadt Airport

Current Time: Jul 29, 2014 at 8:57:21 AM

Latest Report: Jul 29, 2014 at 8:20 AM


Visibility: 5 mi

Pressure: 29.83 "Hg

Humidity: 100%

Dew point: 57 °F

Location of KaufbeurenLocation

Historic Weather in Kaufbeuren — Graph

°F

Kaufbeuren temperature yesterday

Maximum temperature yesterday: 73 °F (at 2:20 PM)
Minimum temperature yesterday: 55 °F (at 6:20 AM)
Average temperature yesterday: 65 °F

Past Weeks' High & Low Weather Summary

 TemperatureHumidityPressure
High86 °F (Jul 19, 3:20 PM)100% (Jul 16, 3:20 AM)30.24 "Hg (Jul 16, 3:20 AM)
Low50 °F (Jul 25, 6:20 AM)29% (Jul 19, 5:20 PM)29.83 "Hg (Jul 28, 5:20 PM)
Average64 °F77%30.03 "Hg
* Reported Jul 14 7:20 AM — Jul 29 7:20 AM, Kaufbeuren, Weather by CustomWeather, © 2014

Note: Actual official high and low records may vary slightly from our data, if they occured in-between our weather recording intervals... More about our weather records

Advertising

Kaufbeuren weather history for previous 24 hours

 ConditionsComfort  
Time TempWeatherWind HumidityBarometerVisibility
7:20 AM
Jul 29
57 °FScattered showers. Partly sunny.6 mph94%29.83 "HgN/A
6:56 AM57 °FScattered showers. Partly sunny.3 mph94%29.83 "HgN/A
6:20 AM57 °FScattered showers. Passing clouds.6 mph94%29.83 "HgN/A
5:20 AM59 °FPassing clouds.6 mph94%29.83 "HgN/A
4:20 AM59 °FCool.9 mph94%29.83 "HgN/A
3:20 AM59 °FCool.9 mph94%29.83 "HgN/A
2:20 AM59 °FCool.10 mph94%29.86 "HgN/A
1:20 AM61 °FCool.7 mph88%29.86 "HgN/A
12:20 AM61 °FCool.9 mph88%29.86 "HgN/A
11:20 PM
Jul 28
64 °FMild.8 mph94%29.83 "HgN/A
10:20 PM66 °FMild.2 mph88%29.86 "HgN/A
9:20 PM66 °FMild.6 mph83%29.83 "HgN/A
8:20 PM70 °FPartly sunny.3 mph73%29.83 "HgN/A
7:20 PM70 °FBroken clouds.6 mph78%29.83 "HgN/A
6:20 PM73 °FScattered clouds.5 mph61%29.83 "HgN/A
5:20 PM72 °FPassing clouds.7 mph69%29.83 "HgN/A
4:20 PM73 °FPassing clouds.9 mph61%29.86 "HgN/A
3:20 PM73 °FPassing clouds.8 mph61%29.86 "HgN/A
2:20 PM73 °FScattered clouds.9 mph61%29.89 "HgN/A
1:20 PM72 °FScattered clouds.7 mph65%29.92 "HgN/A
12:20 PM70 °FPartly sunny.6 mph69%29.92 "HgN/A
11:20 AM70 °FScattered clouds.5 mph69%29.95 "HgN/A
10:20 AM68 °FScattered clouds.3 mph73%29.95 "HgN/A
9:20 AM64 °FPassing clouds.1 mph83%29.98 "HgN/A
8:20 AM61 °FPassing clouds.3 mph94%29.98 "HgN/A
Weather by CustomWeather, © 2014

See weather overviewHow to use our weather pages